Wind_Speed
17 16 16 15 14 15 15 14 14 13 13 13 12 12 11 11 11 10 10 9 8 7 7 6 5 5 5 5 6 7 8 8 9 9 8 9 9 9 8 8 8 7 7
18 18 17 17 16 16 16 16 15 15 14 14 14 13 12 12 12 12 11 11 10 9 9 8 7 6 6 6 6 7 8 9 9 9 9 9 9 9 8 8 8 8 8
20 20 19 19 18 18 17 17 18 17 16 15 15 14 13 13 13 13 12 12 12 11 10 9 9 8 7 7 7 8 9 10 10 10 10 10 10 9 9 8 9 8 8
22 22 21 20 20 19 19 19 19 19 18 17 17 16 15 15 15 14 14 13 13 12 12 11 11 10 9 8 8 9 9 10 9 10 11 11 11 10 10 9 9 9 9
24 24 24 23 22 21 21 20 20 21 20 19 19 18 18 17 17 17 16 16 15 14 14 12 12 11 11 10 9 10 10 11 10 11 11 12 12 12 11 11 10 10 11
26 26 26 25 24 23 23 22 22 22 22 22 21 21 20 19 19 19 18 18 17 16 16 15 13 13 12 12 12 11 11 11 11 11 11 12 13 13 12 12 11 12 12
27 27 27 27 26 26 25 25 24 24 23 24 23 23 22 21 20 20 20 20 19 19 18 17 16 15 15 15 14 13 13 13 13 13 13 14 14 14 14 13 13 13 13
28 28 28 28 28 28 27 27 27 26 25 25 24 24 24 23 23 22 21 21 21 21 20 19 19 18 17 17 17 16 16 16 16 15 15 15 16 16 15 15 15 15 15
29 29 29 29 29 29 29 29 28 28 27 26 26 26 25 25 24 24 23 23 23 22 22 22 21 20 20 19 20 19 19 19 18 18 18 18 17 17 17 17 17 16 16
29 30 31 30 30 31 30 30 30 29 29 28 28 27 27 27 26 26 25 25 25 24 24 24 23 23 22 22 22 22 21 21 21 20 20 20 20 20 20 19 19 18 18
31 31 31 32 32 32 32 32 31 31 30 29 29 29 28 28 27 27 27 27 27 27 26 26 25 25 25 25 24 24 24 23 24 23 23 23 23 23 23 22 21 21 21
32 33 32 33 33 33 34 33 33 33 32 31 31 31 31 30 30 29 28 28 28 28 28 28 28 27 27 27 27 27 27 26 26 26 25 25 25 25 26 25 24 23 23
33 33 33 34 34 34 35 35 35 35 34 33 33 33 32 32 32 31 31 30 30 30 30 30 30 29 29 29 29 29 29 29 28 28 28 28 28 28 28 27 27 26 26
34 34 35 34 35 35 36 36 36 36 35 35 35 34 34 34 34 34 33 33 33 33 33 33 32 32 31 31 31 32 31 31 31 30 30 30 30 30 30 30 29 29 29
35 35 36 36 35 36 36 36 37 37 37 37 37 36 36 36 35 35 35 35 35 35 35 34 34 34 34 34 34 34 34 34 34 33 33 32 32 32 32 32 32 31 31
37 37 37 37 36 37 37 38 38 38 38 38 37 37 37 37 38 38 37 37 36 37 37 37 36 36 36 36 37 37 37 36 36 36 36 35 35 35 34 34 34 34 34
38 38 37 38 38 38 38 39 39 39 39 39 38 38 39 39 39 40 40 39 39 38 39 39 39 38 39 38 39 39 39 39 39 39 39 38 38 38 38 37 37 37 37
39 38 38 39 39 39 39 39 40 41 41 41 40 40 40 40 40 40 41 41 41 41 41 41 41 42 41 41 41 42 42 42 42 41 41 41 41 41 40 40 40 39 39
40 39 39 39 40 40 40 41 41 42 43 43 42 42 42 42 42 42 41 42 42 42 43 43 43 44 44 44 44 43 44 44 44 44 44 44 44 43 43 43 42 42 42
40 40 40 40 40 40 41 41 42 43 43 43 44 43 43 44 44 44 43 44 44 44 44 45 45 45 45 46 46 45 46 46 46 46 45 45 45 45 45 45 45 44 44
39 39 39 40 41 41 42 42 42 43 44 44 44 45 45 45 45 46 46 45 46 46 46 47 46 46 46 47 47 47 47 47 48 48 47 46 45 45 46 45 46 46 46
38 38 39 40 41 41 41 42 43 43 44 45 45 46 47 46 46 46 47 47 46 47 47 47 47 47 47 48 48 48 48 48 49 49 49 48 47 47 46 45 46 47 47
38 38 38 39 41 41 41 42 43 43 44 45 45 46 46 46 46 46 46 46 46 46 46 46 47 47 48 48 49 49 49 50 50 50 50 50 49 49 48 47 47 48 48
38 39 39 39 40 41 41 42 43 44 44 45 45 46 46 47 47 46 47 46 46 46 46 47 47 47 48 48 49 49 50 50 51 50 50 51 51 51 51 50 49 49 49
39 39 40 40 40 40 41 42 43 43 44 45 45 45 46 47 47 47 48 47 47 47 47 47 47 48 48 48 49 49 49 50 51 50 50 51 51 52 53 53 52 51 51
38 38 39 40 41 41 42 43 44 44 44 45 46 47 47 47 48 48 49 49 49 48 48 48 48 48 48 48 49 49 50 50 50 50 50 51 51 52 53 54 55 54 54
Wind_Direction
242 241 240 240 239 238 235 234 235 234 233 233 233 234 236 238 235 234 236 237 240 239 240 244 245 241 239 240 233 222 215 207 201 197 198 198 200 198 200 204 209 215 216
244 243 242 241 240 238 237 235 235 236 236 236 235 237 239 239 239 239 239 240 244 246 245 247 249 249 247 243 232 225 215 212 209 204 202 206 207 208 212 219 222 227 227
245 244 242 243 241 239 237 237 237 238 238 238 238 238 241 241 241 243 241 243 245 247 249 249 250 252 252 244 234 227 219 215 213 208 209 211 213 218 223 228 231 236 236
245 245 243 243 243 241 239 239 240 239 239 240 240 239 240 242 243 244 244 245 245 246 248 248 250 252 252 249 239 230 222 218 218 217 216 217 220 225 231 233 234 238 242
245 245 244 243 243 243 242 241 241 239 239 241 241 241 242 243 245 246 245 245 245 245 247 248 249 249 250 248 243 234 227 227 228 226 225 224 225 228 233 236 239 242 247
246 245 245 244 243 244 244 243 243 242 242 242 243 243 244 246 247 247 247 248 247 247 248 249 249 248 248 249 244 241 236 233 234 232 232 229 231 232 235 239 242 247 250
247 247 246 246 244 244 245 245 244 245 245 244 245 244 245 246 248 250 249 249 249 249 249 250 250 250 250 248 245 243 242 239 241 240 239 236 236 238 240 242 244 249 251
248 247 247 247 246 245 246 246 246 246 246 247 246 245 245 247 248 250 251 250 250 249 249 249 250 250 250 249 247 245 244 244 244 245 245 244 243 242 244 245 247 250 251
248 247 247 247 247 246 247 247 247 248 248 248 248 247 245 246 249 251 252 252 251 251 250 249 249 250 250 250 249 248 248 246 246 246 246 246 246 245 246 247 249 250 251
250 249 248 248 248 248 248 248 248 248 248 248 248 248 247 248 250 251 252 253 253 253 251 250 250 250 250 250 250 249 250 249 248 248 248 248 250 249 249 249 250 251 252
253 252 250 249 248 248 248 249 249 249 249 249 249 249 250 250 250 252 252 253 254 254 253 251 251 251 251 251 252 251 251 251 250 250 250 251 252 252 251 250 250 251 252
254 254 253 252 250 250 249 249 250 249 250 250 250 250 251 252 254 254 252 252 254 254 253 253 252 253 253 253 253 254 253 253 252 252 253 253 254 255 253 251 251 252 253
254 254 254 253 252 251 250 249 249 250 250 250 250 250 252 253 254 253 253 253 254 253 254 255 254 255 255 255 255 255 255 254 254 253 254 254 255 256 254 252 253 254 254
254 254 253 253 253 252 251 251 249 249 249 250 250 251 252 253 253 253 253 255 255 255 254 254 255 255 255 255 256 256 256 256 256 255 255 255 256 256 255 254 255 257 258
254 254 255 254 254 253 252 252 251 250 250 251 250 250 252 253 253 255 254 254 255 254 254 255 255 255 256 256 256 256 257 256 257 257 257 257 257 257 257 257 257 258 259
254 253 254 255 255 254 253 252 252 251 250 250 250 250 251 252 254 255 254 254 253 254 254 254 256 257 257 256 256 255 256 257 257 258 258 258 257 258 258 259 259 260 259
255 254 254 254 255 255 255 253 252 251 250 251 251 251 251 252 254 255 255 255 254 254 255 255 255 256 256 257 257 256 256 256 257 258 258 258 258 258 259 260 260 261 261
255 254 254 254 254 255 255 254 252 252 251 252 252 253 253 253 254 256 256 256 256 256 256 256 256 257 257 257 258 257 257 256 257 258 258 258 258 258 259 260 261 261 261
256 255 255 254 254 254 255 255 254 253 253 253 253 254 254 254 255 256 257 257 258 258 258 258 257 258 258 258 258 257 257 257 256 256 257 258 258 258 259 259 261 261 261
258 257 256 255 255 255 255 255 255 255 255 255 255 255 255 255 255 257 258 258 258 259 260 260 260 260 260 259 259 258 258 257 256 256 257 257 258 259 260 260 260 261 261
259 258 257 257 257 256 256 255 255 255 256 256 256 256 256 256 257 258 259 259 259 260 260 260 261 261 261 261 260 259 258 258 258 257 257 257 258 259 260 261 261 261 261
260 258 257 257 257 257 257 256 256 257 257 257 258 258 258 258 259 260 260 260 261 262 262 262 261 262 261 261 260 260 259 259 259 259 258 257 258 258 259 260 261 261 261
260 259 258 258 258 257 257 257 257 256 257 258 258 259 260 260 260 261 260 261 261 263 263 263 263 263 263 262 261 261 261 260 259 259 259 258 258 258 259 259 260 260 261
261 259 258 258 258 257 258 259 259 259 258 258 259 259 260 261 262 262 261 262 262 263 264 264 264 264 264 263 263 263 263 262 260 259 258 259 259 258 259 259 260 260 260
263 261 259 259 259 259 259 260 260 260 259 260 260 260 261 262 263 263 263 263 263 263 264 264 264 264 264 264 264 264 264 263 262 260 260 259 259 259 259 259 259 260 260
265 262 260 260 259 260 260 260 260 260 260 260 260 260 261 263 263 264 263 263 264 263 264 264 264 265 265 264 263 263 264 263 262 261 260 259 260 260 260 260 260 260 260
Height
5832 5833 5834 5835 5836 5838 5838 5839 5840 5841 5842 5843 5844 5844 5845 5846 5846 5847 5848 5849 5850 5850 5850 5850 5851 5851 5851 5851 5851 5851 5853 5855 5857 5858 5860 5862 5864 5865 5867 5868 5869 5870 5871
5829 5830 5832 5833 5834 5835 5836 5837 5838 5839 5840 5841 5842 5843 5843 5844 5845 5846 5847 5848 5848 5849 5849 5850 5850 5850 5850 5849 5849 5849 5851 5853 5856 5858 5859 5861 5863 5864 5866 5867 5868 5869 5870
5825 5827 5828 5830 5831 5832 5833 5835 5836 5837 5838 5839 5840 5841 5841 5842 5843 5844 5845 5846 5847 5847 5848 5848 5849 5849 5849 5848 5848 5848 5849 5852 5854 5857 5859 5860 5862 5863 5864 5866 5867 5868 5869
5822 5823 5825 5826 5828 5829 5831 5832 5833 5834 5835 5836 5838 5838 5839 5840 5841 5843 5843 5844 5845 5845 5846 5847 5847 5847 5848 5848 5847 5848 5849 5851 5853 5856 5858 5859 5861 5862 5863 5864 5865 5866 5867
5818 5820 5821 5822 5824 5826 5827 5828 5830 5831 5832 5833 5835 5836 5837 5838 5839 5840 5841 5842 5843 5843 5844 5845 5845 5846 5847 5847 5847 5848 5849 5850 5853 5855 5856 5858 5859 5860 5861 5862 5864 5865 5866
5814 5815 5817 5818 5820 5822 5823 5825 5826 5827 5829 5830 5831 5832 5834 5835 5836 5837 5838 5839 5840 5841 5842 5843 5844 5844 5845 5845 5846 5847 5848 5849 5851 5853 5855 5856 5857 5858 5859 5861 5862 5863 5864
5809 5811 5812 5814 5816 5817 5819 5821 5822 5823 5825 5826 5828 5829 5830 5832 5833 5834 5835 5836 5837 5838 5839 5840 5841 5842 5843 5843 5844 5845 5846 5848 5849 5851 5852 5854 5855 5856 5857 5858 5859 5860 5861
5803 5806 5807 5809 5811 5813 5814 5816 5818 5819 5820 5822 5823 5825 5827 5828 5829 5830 5832 5833 5834 5835 5836 5837 5838 5839 5840 5841 5842 5843 5844 5845 5847 5848 5849 5851 5852 5853 5855 5856 5857 5858 5858
5798 5800 5802 5804 5806 5807 5809 5811 5813 5815 5816 5818 5819 5821 5822 5824 5825 5826 5827 5829 5830 5831 5832 5833 5834 5835 5836 5837 5839 5840 5841 5842 5843 5845 5846 5847 5849 5850 5851 5852 5853 5854 5855
5793 5794 5796 5798 5800 5802 5804 5805 5807 5809 5811 5813 5814 5816 5818 5819 5820 5822 5823 5824 5825 5827 5828 5829 5830 5831 5833 5834 5835 5836 5837 5839 5840 5841 5842 5844 5845 5846 5847 5849 5849 5851 5852
5787 5788 5790 5792 5794 5796 5798 5800 5802 5803 5805 5807 5809 5811 5813 5814 5815 5817 5818 5819 5820 5822 5823 5824 5825 5827 5828 5829 5830 5831 5833 5834 5836 5837 5838 5840 5841 5842 5843 5844 5845 5846 5847
5780 5782 5784 5786 5788 5790 5792 5793 5795 5797 5799 5801 5803 5805 5807 5808 5810 5811 5813 5814 5815 5816 5817 5819 5820 5822 5823 5824 5825 5827 5828 5829 5831 5832 5833 5835 5836 5837 5838 5839 5840 5841 5843
5774 5775 5777 5779 5781 5783 5785 5787 5788 5790 5792 5794 5796 5798 5800 5802 5804 5805 5807 5808 5810 5811 5812 5813 5815 5816 5817 5818 5820 5821 5822 5824 5826 5827 5828 5829 5831 5832 5833 5834 5835 5836 5837
5767 5769 5770 5772 5774 5775 5777 5779 5781 5783 5785 5787 5789 5791 5793 5795 5797 5798 5800 5802 5803 5804 5806 5807 5808 5810 5811 5812 5813 5815 5816 5818 5819 5821 5822 5824 5825 5826 5827 5828 5829 5830 5831
5759 5761 5763 5764 5766 5768 5770 5772 5773 5775 5777 5780 5782 5784 5786 5788 5789 5791 5793 5794 5796 5797 5798 5800 5801 5802 5804 5805 5806 5808 5809 5811 5812 5814 5815 5817 5818 5819 5821 5822 5823 5824 5825
5751 5753 5755 5756 5758 5760 5762 5764 5765 5767 5769 5771 5773 5776 5778 5779 5781 5783 5785 5786 5788 5789 5791 5792 5793 5795 5796 5797 5798 5800 5802 5803 5805 5806 5808 5809 5811 5812 5813 5815 5816 5817 5818
5742 5744 5746 5748 5750 5752 5754 5755 5757 5759 5761 5763 5765 5767 5769 5771 5772 5774 5776 5777 5779 5781 5782 5783 5784 5786 5787 5788 5790 5791 5793 5795 5797 5798 5800 5801 5803 5804 5805 5807 5808 5810 5811
5733 5735 5737 5739 5741 5743 5745 5747 5749 5750 5752 5754 5756 5758 5760 5762 5763 5765 5767 5768 5770 5771 5773 5774 5775 5777 5778 5779 5781 5782 5784 5786 5787 5789 5791 5792 5794 5795 5797 5798 5799 5801 5802
5724 5726 5728 5730 5732 5734 5736 5738 5739 5741 5743 5744 5746 5748 5750 5752 5754 5755 5757 5758 5760 5761 5762 5764 5765 5767 5768 5769 5771 5772 5774 5776 5777 5779 5781 5782 5784 5785 5787 5788 5790 5791 5793
5714 5716 5719 5720 5722 5724 5726 5728 5730 5731 5733 5735 5736 5738 5740 5741 5743 5745 5747 5748 5749 5751 5752 5753 5754 5756 5757 5759 5760 5761 5763 5764 5766 5768 5770 5771 5773 5775 5777 5778 5780 5781 5783
5705 5707 5709 5711 5713 5714 5716 5718 5720 5721 5723 5725 5726 5728 5729 5731 5732 5734 5736 5737 5738 5739 5741 5742 5743 5744 5746 5747 5749 5750 5752 5753 5755 5757 5758 5760 5762 5764 5765 5767 5768 5770 5772
5695 5697 5699 5701 5703 5704 5706 5708 5710 5711 5713 5714 5716 5717 5718 5720 5721 5723 5724 5726 5727 5728 5729 5730 5731 5732 5733 5735 5736 5737 5740 5742 5743 5745 5746 5748 5751 5752 5754 5755 5757 5759 5761
5686 5687 5689 5691 5692 5694 5696 5697 5699 5700 5702 5704 5705 5706 5707 5708 5710 5711 5712 5713 5715 5716 5717 5717 5719 5720 5721 5722 5723 5724 5726 5729 5731 5733 5734 5736 5738 5740 5742 5743 5745 5747 5749
5676 5678 5679 5681 5682 5683 5685 5686 5688 5690 5692 5693 5694 5695 5696 5697 5698 5699 5700 5701 5702 5704 5704 5706 5706 5707 5708 5709 5710 5711 5713 5715 5717 5719 5721 5723 5725 5727 5729 5731 5732 5734 5736
5666 5667 5669 5670 5671 5673 5674 5675 5677 5678 5680 5681 5683 5684 5684 5685 5686 5687 5688 5689 5690 5691 5692 5693 5694 5695 5695 5696 5697 5698 5699 5701 5703 5705 5708 5710 5712 5714 5715 5717 5719 5720 5722
5656 5657 5658 5659 5661 5662 5663 5664 5665 5667 5668 5669 5670 5671 5672 5673 5673 5674 5675 5676 5677 5678 5679 5680 5681 5682 5682 5683 5684 5685 5686 5687 5689 5691 5693 5696 5698 5700 5701 5703 5705 5707 5708